Regional Weather Roundup
Issued by NWS

Home | Current Version | Previous Version | Text Only | Print | Product List | Glossary On
Versions: 1 2 3 4 5 6 7 8 9 10 11 12 13 14 15 16 17 18 19 20 21 22 23 24 25 26 27 28
000
ASUS46 KSEW 270710
RWRWA

WASHINGTON REGIONAL WEATHER ROUNDUP
NATIONAL WEATHER SERVICE SEATTLE WA
1200 AM PDT MON MAR 27 2017

NOTE:"FAIR" INDICATES FEW OR NO CLOUDS BELOW 12,000 FEET WITH NO
SIGNIFICANT WEATHER AND/OR OBSTRUCTIONS TO VISIBILITY.

WAZ507-509-555>559-270800-
SEATTLE, TACOMA, EVERETT, AND VICINITY

CITY           SKY/WX    TMP DP  RH WIND       PRES   REMARKS
EVERETT        CLOUDY    45  44  97 SE13G23   29.81R
BOEING FIELD   CLOUDY    46  46 100 S8        29.85R
RENTON         CLOUDY    47  44  90 SE8       29.85R
SEATAC AIRPORT CLOUDY    45  43  93 S14       29.84R
JBLM-MCCHORD   MOCLDY    44  44 100 S8        29.86R
PUYALLUP         N/A     45  45 100 CALM      29.86R FOG
BREMERTON      CLOUDY    43  43 100 S9        29.86R
JBLM-FT LEWIS  CLOUDY    45  45 100 SE6       29.86R
TACOMA NARROWS MOCLDY    45  44  97 S8        29.86R
$$

WAZ001-503-506-510-514-515-270800-
NORTH INTERIOR

CITY           SKY/WX    TMP DP  RH WIND       PRES   REMARKS
BELLINGHAM     LGT RAIN  47  45  93 S6        29.80R
FRIDAY HARBOR  CLOUDY    46  43  89 SE6       29.81R
EASTSOUND      CLOUDY    46  45  93 S6        29.79R
PORT ANGELES   CLOUDY    40  40 100 S3        29.80R
EDIZ HOOK      FAIR      44  42  93 CALM      29.80R
PORT TOWNSEND  FAIR      43  41  93 CALM      29.81R
NAS WHIDBEY    CLOUDY    49  43  80 SE5       29.84R
ARLINGTON      CLOUDY    45  36  70 SE17      29.84R
BURLINGTON     CLOUDY    46  43  87 E6        29.82R
$$

WAZ020-022-039-040-504-511-512-270800-
SOUTHWEST INTERIOR

CITY           SKY/WX    TMP DP  RH WIND       PRES   REMARKS
SHELTON        LGT RAIN  46  43  89 S7        29.83R
OLYMPIA        LGT RAIN  45  45 100 S7        29.87R
CHEHALIS       CLOUDY    46  46 100 CALM      29.87R
KELSO          CLOUDY    46  45  96 SE6       29.90R
VANCOUVER      MOCLDY    48  45  89 CALM      29.92R
SCAPPOOSE, OR  MOCLDY    42  42 100 CALM      29.90R
PORTLAND, OR   MOCLDY    47  44  90 S8        29.92R
$$

WAZ021-516-517-270800-
WASHINGTON COAST

CITY           SKY/WX    TMP DP  RH WIND       PRES   REMARKS
FORKS          CLOUDY    45  44  97 VRB3      29.79R
HOQUIAM        MOCLDY    47  46  97 SE3       29.84R
ASTORIA, OR    CLOUDY    48  43  82 SW6       29.87R
$$

WAZ019-023-024-040-567>569-270800-
CASCADE MOUNTAINS AND COLUMBIA GORGE

CITY           SKY/WX    TMP DP  RH WIND       PRES   REMARKS
STAMPEDE PASS  NOT AVBL
TROUTDALE, OR  CLOUDY    49  44  83 SW8       29.92R
THE DALLES, OR CLOUDY    43  41  93 CALM      29.89R
$$

WAZ026-027-041>044-520-521-270800-
EAST SLOPES

CITY           SKY/WX    TMP DP  RH WIND       PRES   REMARKS
OMAK           LGT RAIN  41  38  89 S3        29.82S
WENATCHEE      CLOUDY    40  40 100 CALM      29.82R
ELLENSBURG     CLOUDY    42  38  85 NW6       29.80R
YAKIMA         PTCLDY    42  39  89 SW5       29.82S
SUNNYSIDE ARPT PTSUNNY   39  39  99 CALM      29.83R FOG
$$

WAZ028-034-035-270800-
COLUMBIA BASIN

CITY           SKY/WX    TMP DP  RH WIND       PRES   REMARKS
EPHRATA        CLOUDY    43  38  82 CALM      29.81R
MOSES LAKE     CLOUDY    45  41  86 W3        29.82R
PASCO          CLOUDY    45  43  93 W5        29.83R
HERMISTON, OR  CLOUDY    46  45  96 W10       29.85R
$$

WAZ036>038-270800-
NORTHEAST WASHINGTON

CITY           SKY/WX    TMP DP  RH WIND       PRES   REMARKS
SPOKANE GEIGER DRIZZLE   41  39  93 S7        29.81S
SPOKANE FELTS  CLOUDY    43  41  93 NE3       29.82F
FAIRCHILD AFB  CLOUDY    40  40 100 S5        29.80S
COEURDALENE,ID LGT RAIN  41  40  96 S6        29.82S
DEER PARK      LGT RAIN  41  39  93 SE5       29.82S FOG
$$

WAZ029>033-270800-
SOUTHEAST WASHINGTON

CITY           SKY/WX    TMP DP  RH WIND       PRES   REMARKS
PULLMAN        CLOUDY    42  40  92 CALM      29.84R
LEWISTON, ID   CLOUDY    45  42  89 VRB3      29.83S
WALLA WALLA    LGT RAIN  49  43  80 SW12      29.82R
PENDLETON, OR  LGT RAIN  45  41  86 S16       29.84R
$$




USA.gov is the U.S. government's official web portal to all federal, state and local government web resources and services.